Regional Weather Roundup
Issued by NWS

Home | Current Version | Previous Version | Graphics & Text | Print | Product List | Glossary Off
Versions: 1 2 3 4 5 6 7 8 9 10 11 12 13 14 15 16 17 18 19 20 21 22 23 24 25 26 27 28 29 30 31 32 33 34 35 36 37 38 39 40 41 42 43 44 45 46 47 48 49 50

000
ASUS43 KTOP 290259
RWRKS

WEATHER ROUNDUP FOR KANSAS
NATIONAL WEATHER SERVICE GOODLAND KS
1000 PM CDT THU APR 28 2016

NOTE:  "FAIR" INDICATES FEW OR NO CLOUDS BELOW 12,000 FEET WITH NO
SIGNIFICANT WEATHER AND/OR OBSTRUCTIONS TO VISIBILITY.

KSZ001>006-013>018-027>032-041>047-290400-
NORTHWEST KANSAS

CITY           SKY/WX    TMP DP  RH WIND       PRES   REMARKS
GOODLAND       MOCLDY    43  37  79 NE10      30.05R
HAYS           CLOUDY    54  37  54 NE12      30.07R
HILL CITY      CLOUDY    50  43  77 NE8       30.08R
RUSSELL        MOCLDY    49  44  83 NE7       30.06R
$$

KSZ061>065-074>080-084>089-290400-
SOUTHWEST KANSAS

CITY           SKY/WX    TMP DP  RH WIND       PRES   REMARKS
DODGE CITY     CLOUDY    53  39  59 NE15      29.98F
ELKHART          N/A     54  37  52 E14         N/A
GARDEN CITY    MOCLDY    51  38  60 NE16      29.98R
GREAT BEND     CLOUDY    54  41  62 NE10      30.05R
LIBERAL        CLOUDY    54  41  62 E16G23    29.96R
$$

KSZ066>073-081>083-090>101-290400-
SOUTHEAST KANSAS

CITY           SKY/WX    TMP DP  RH WIND       PRES   REMARKS
CHANUTE        CLOUDY    61  50  67 NE7       29.99R
COFFEYVILLE    CLOUDY    58  52  80 N5        29.97R
HUTCHINSON     CLOUDY    57  47  69 N7        30.05R
MEDICINE LODGE   N/A     56  52  86 N9        30.01R
NEWTON         CLOUDY    55  43  62 NE6       30.05R
PARSONS        PTCLDY    59  52  77 N3        29.99R
WICHITA INTL   CLOUDY    61  48  62 NE12      30.00R
WICHITA JABRA  CLOUDY    57  49  74 NE6       30.02R
WINFIELD       CLOUDY    62  49  62 NE6       30.00R
$$

KSZ007>012-019>026-033>040-048>060-102>105-290400-
NORTHEAST KANSAS

CITY           SKY/WX    TMP DP  RH WIND       PRES   REMARKS
CONCORDIA      CLOUDY    51  42  71 N9        30.09R
EMPORIA        CLOUDY    55  47  74 N8        30.03R
LAWRENCE       CLEAR     50  45  83 N6        30.05R
MANHATTAN      PTCLDY    51  44  77 N5        30.06R
OLATHE IND     PTCLDY    50  46  86 N7        30.05R
OLATHE EXE     PTCLDY    51  45  79 N6        30.04R
SALINA         CLOUDY    55  45  68 NE7       30.07R
TOPEKA BILLARD PTCLDY    50  45  83 NE5       30.05R
TOPEKA FORBES  PTCLDY    53  45  74 N5        30.04R
$$




USA.gov is the U.S. government's official web portal to all federal, state and local government web resources and services.